Flag for United Kingdom Weather past 2 weeks in Belfast, Northern Ireland, United Kingdom

Now
54 °F

Passing clouds.


Feels Like: 51 °F
Forecast: 39 / 58 °F
Wind: 9 mph from Southeast

Location: Belfast / Harbour


UV Index: 3 (Moderate)

Visibility: N/A


Pressure: 30.12 "Hg

Humidity: 63%

Dew point: 41 °F

Location of BelfastLocation

Historic Weather in Belfast

°F

Belfast temperature yesterday

Maximum temperature yesterday: 55 °F (at 1:50 PM)
Minimum temperature yesterday: 37 °F (at 6:20 AM)
Average temperature yesterday: 50 °F

Past Weeks' High & Low Weather Summary

 TemperatureHumidityPressure
High61 °F (Apr 6, 4:20 PM)94% (Apr 4, 10:20 AM)30.39 "Hg (Apr 4, 10:20 AM)
Low37 °F (Apr 18, 6:20 AM)44% (Apr 6, 6:20 PM)29.42 "Hg (Apr 6, 9:20 AM)
Average51 °F73%30.00 "Hg
* Reported Apr 4 10:20 AM — Apr 19 10:50 AM, Belfast, Weather by CustomWeather, © 2014

Note: Actual official high and low records may vary slightly from our data, if they occured in-between our weather recording intervals... More about our weather records

Advertising

Historic Weather Conditions — Data for Previous 24 hours

 ConditionsComfort  
Time TempWeatherWind HumidityBarometerVisibility
10:50 AM
Apr 19
55 °FPassing clouds.8 mph55%30.12 "HgN/A
10:20 AM54 °FPassing clouds.8 mph67%30.12 "HgN/A
9:50 AM50 °FPassing clouds.7 mph82%30.12 "HgN/A
9:20 AM50 °FPassing clouds.6 mph82%30.12 "HgN/A
8:50 AM48 °FPassing clouds.3 mph82%30.12 "HgN/A
8:20 AM46 °FPassing clouds.2 mph87%30.12 "HgN/A
7:50 AM46 °FPassing clouds.No wind82%30.09 "HgN/A
7:20 AM41 °FPassing clouds.No wind87%30.09 "HgN/A
6:50 AM37 °FFog.No wind93%30.09 "HgN/A
6:20 AM37 °FFog.No wind93%30.12 "HgN/A
8:50 PM
Apr 18
48 °FSunny.7 mph66%30.15 "Hg10 mi
8:20 PM50 °FSunny.9 mph62%30.15 "Hg10 mi
7:50 PM52 °FSunny.10 mph58%30.15 "Hg10 mi
7:20 PM54 °FPassing clouds.9 mph54%30.15 "HgN/A
6:50 PM54 °FPassing clouds.10 mph54%30.15 "HgN/A
6:20 PM54 °FPassing clouds.10 mph58%30.15 "HgN/A
5:50 PM54 °FPassing clouds.10 mph54%30.15 "HgN/A
5:20 PM55 °FPassing clouds.9 mph51%30.15 "HgN/A
4:50 PM54 °FPassing clouds.10 mph58%30.15 "HgN/A
4:20 PM55 °FPassing clouds.10 mph55%30.15 "HgN/A
3:50 PM55 °FPassing clouds.9 mph55%30.18 "HgN/A
3:20 PM55 °FPassing clouds.8 mph59%30.18 "HgN/A
2:20 PM55 °FPassing clouds.12 mph55%30.18 "HgN/A
1:50 PM55 °FPassing clouds.13 mph59%30.18 "HgN/A
1:20 PM54 °FPassing clouds.10 mph58%30.18 "HgN/A
12:50 PM54 °FPassing clouds.9 mph58%30.21 "HgN/A
12:20 PM52 °FPassing clouds.8 mph58%30.21 "HgN/A
11:50 AM52 °FPassing clouds.7 mph58%30.21 "HgN/A
11:20 AM50 °FPassing clouds.8 mph62%30.21 "HgN/A
Weather by CustomWeather, © 2014

See weather overview